Irving, TX

9:55 AM CST on February 14, 2016 (GMT -0600)
Dallas-Fort Worth International

Weather History for KDFW - January, 2013

Change the Weather History Date:

Tuesday, January 22, 2013

  Actual Average Record
Temperature  
Mean Temperature 51 °F 46 °F  
Max Temperature 66 °F 57 °F 85 °F (1909)
Min Temperature 36 °F 36 °F 6 °F (1918)
Degree Days  
Heating Degree Days 14 19  
Month to date heating degree days 423 429  
Since 1 July heating degree days 1163 1341  
Cooling Degree Days 0 0  
Month to date cooling degree days 0 0  
Year to date cooling degree days 0 0  
Growing Degree Days 2 (Base 50)    
Moisture  
Dew Point 37 °F    
Average Humidity 61    
Maximum Humidity 77    
Minimum Humidity 44    
Precipitation  
Precipitation 0.00 in 0.07 in 1.95 in (1932)
Month to date precipitation 3.67 1.43  
Year to date precipitation 3.67 1.43  
Snow  
Snow 0.00 in 0.00 in 4.00 in (1940)
Month to date snowfall 0.3 0.1  
Since 1 July snowfall 0.8 0.4  
Snow Depth 0.00 in    
Sea Level Pressure  
Sea Level Pressure 30.23 in    
Wind  
Wind Speed 6 mph (SE)    
Max Wind Speed 13 mph    
Max Gust Speed 16 mph    
Visibility 10 miles    
Events      
T = Trace of Precipitation, MM = Missing Value Source: NWS Daily Summary

Daily Weather History Graph

Daily Weather History Graph

Search for Another Location

Airport or City:

Trip Planner

Search our weather history database for the weather conditions in past years. The results will help you decide how hot, cold, wet, or windy it might be!

Date:

Astronomy

Jan. 22, 2013 Rise Set
Actual Time 7:28 AM CST 5:51 PM CST
Civil Twilight 7:02 AM CST 6:17 PM CST
Nautical Twilight 6:32 AM CST 6:47 PM CST
Astronomical Twilight 6:02 AM CST 7:17 PM CST
Moon 2:17 PM CST (1/22) 3:49 AM CST (1/22)
Length of Visible Light 11h 15m
Length of Day
10h 22m
Waxing Gibbous, 83% of the Moon is Illuminated
Jan 22
Waxing Gibbous
Jan 26
Full
Feb 3
Last Quarter
Feb 10
New
Feb 17
First Quarter

Hourly Weather History & Observations

Time (CST) Temp. Windchill Dew Point Humidity Pressure Visibility Wind Dir Wind Speed Gust Speed Precip Events Conditions
12:53 AM 39.9 °F 35.1 °F 25.0 °F 55% 30.25 in 10.0 mi North 6.9 mph - N/A   Partly Cloudy
1:53 AM 37.9 °F 35.5 °F 25.0 °F 60% 30.25 in 10.0 mi North 3.5 mph - N/A   Partly Cloudy
2:53 AM 37.9 °F 34.4 °F 27.0 °F 65% 30.25 in 10.0 mi NNW 4.6 mph - N/A   Partly Cloudy
3:53 AM 37.0 °F 31.6 °F 26.1 °F 65% 30.25 in 10.0 mi North 6.9 mph - N/A   Scattered Clouds
4:53 AM 36.0 °F 31.1 °F 26.1 °F 67% 30.26 in 10.0 mi North 5.8 mph - N/A   Scattered Clouds
5:53 AM 39.0 °F 35.7 °F 27.0 °F 62% 30.28 in 10.0 mi NNE 4.6 mph - N/A   Mostly Cloudy
6:53 AM 37.9 °F - 26.1 °F 62% 30.30 in 10.0 mi Calm Calm - N/A   Mostly Cloudy
7:53 AM 39.9 °F - 26.1 °F 58% 30.30 in 10.0 mi Calm Calm - N/A   Mostly Cloudy
8:53 AM 42.1 °F 39.2 °F 28.0 °F 58% 30.29 in 10.0 mi SSE 4.6 mph - N/A   Scattered Clouds
9:53 AM 46.9 °F - 32.0 °F 56% 30.30 in 10.0 mi SSE 6.9 mph - N/A   Scattered Clouds
10:53 AM 52.0 °F - 36.0 °F 54% 30.29 in 10.0 mi South 6.9 mph - N/A   Scattered Clouds
11:53 AM 57.9 °F - 39.0 °F 49% 30.26 in 10.0 mi SSW 5.8 mph - N/A   Mostly Cloudy
12:53 PM 57.9 °F - 41.0 °F 53% 30.25 in 10.0 mi Variable 3.5 mph - N/A   Mostly Cloudy
1:53 PM 61.0 °F - 42.1 °F 50% 30.21 in 10.0 mi South 8.1 mph - N/A   Mostly Cloudy
2:53 PM 64.9 °F - 42.1 °F 43% 30.18 in 10.0 mi South 9.2 mph - N/A   Scattered Clouds
3:53 PM 64.9 °F - 43.0 °F 45% 30.18 in 10.0 mi South 10.4 mph - N/A   Partly Cloudy
4:53 PM 64.9 °F - 44.1 °F 47% 30.17 in 10.0 mi South 11.5 mph - N/A   Clear
5:53 PM 61.0 °F - 44.1 °F 54% 30.17 in 10.0 mi South 5.8 mph - N/A   Partly Cloudy
6:53 PM 57.0 °F - 44.1 °F 62% 30.19 in 10.0 mi ESE 5.8 mph - N/A   Clear
7:53 PM 54.0 °F - 44.1 °F 69% 30.20 in 10.0 mi ESE 4.6 mph - N/A   Clear
8:53 PM 53.1 °F - 45.0 °F 74% 30.20 in 10.0 mi ESE 5.8 mph - N/A   Clear
9:53 PM 53.1 °F - 46.0 °F 77% 30.20 in 10.0 mi SE 3.5 mph - N/A   Clear
10:53 PM 53.1 °F - 46.0 °F 77% 30.20 in 10.0 mi SE 3.5 mph - N/A   Clear
11:53 PM 53.1 °F - 46.0 °F 77% 30.20 in 10.0 mi SSE 4.6 mph - N/A   Clear